ICEYE-X24 (52755 NORAD) Tracking and Keplerian Element Data

This shows tracking and keplerian element data for the satellite.

Feedback or suggestion? Click here.




ElementValue
Catalog52755
NameICEYE-X24
Epoch Orbit1879
Epoch Day270.03827434
Epoch Year2022
RAAN23.3597
Inclination97.5255
Eccentricity0.0010293
Argument of Perigee163.4971
Mean Anonmoly311.8145
Mean Motion15.13734298
Decay Rate8.039E-05
L11 52755U 22057Z 22270.03827434 .00008039 00000+0 44908-3 0 9991
L22 52755 97.5255 23.3597 0010293 163.4971 311.8145 15.13734298 18795

Live tracking and technical data element details for ICEYE-X24 (NORAD 52755). ICEYE-X24 can be tracked NOW for your location showing map with azimuth and elevation plus other details from your city location.

Track the satellite on the map from your city or location and see movement details for azimuth, elevation, latitude, longitude, range, height, and movement on the map or in text.







IsCatalogInMostPopularTable: catalog: 52755, numindb: 11
Update: records affected: 1



GetName: 52755 ICEYE-X24

Hit Count: updated at: Thu, 06 Oct 2022 03:30:57 GMT